Погода в Дуплятском

Россия / Волгоградская область     51°06′35″N   42°21′01″E
темп.,
°C
ветер,
м/с
пор.,
м/с
влажн.,
%
обл.,
%
осадки,
мм/ч
давл.,
гПа
погр.,
м
6 марта, сб
сб600:00−4ссз129099 0.0 101521
03:00−5ссв129299 0.0 101621
06:00−5св2295100 0.0 101524
09:00−4всв2294100 0.0 1016131
12:00−2ссв1189100 0.0 1015296
15:00−2ссв2394100 0.3 1014303
18:00−3ссв2298100 0.6 101461
21:00−5ссв2297100 1.0 101548
7 марта, вс
вс700:00−5сз479597 0.7 1015375
03:00−7сз599498 0.8 1017353
06:00−10з369541 0.0 1018146
09:00−6зюз5108521 0.0 1018601
12:00−3зюз7117232 0.0 10151177
15:00−2юз6137266 0.0 10121193
18:00−2юз71569100 0.0 1009778
21:00−2юз91772100 0.0 10071041
8 марта, пн
пн800:00−2зюз91691100 0.1 1005876
03:00−2зюз71493100 0.3 1005729
06:00−2юз8159499 0.4 1004847
09:00−1зюз81487100 0.6 10031035
12:000зюз91488100 0.4 10031258
15:00−3зсз9146890 1.5 10051387
18:00−6зсз613792 0.0 1007638
21:00−8зсз512851 0.0 1011502
9 марта, вт
вт900:00−9з498828 0.0 1012273
03:00−9з378914 0.0 1013167
06:00−10з35900 0.0 1014104
09:00−7з47880 0.0 1015453
12:00−5зсз468589 0.1 1015780
15:00−5сз468495 0.2 1015748
18:00−7ссз3689100 0.1 1016213
21:00−10сз499089 0.1 1019286
10 марта, ср
ср1000:00−13сз37920 0.0 1021203
03:00−14сз35930 0.0 1023125
06:00−14зсз239519 0.0 102272
09:00−11зюз368710 0.0 1022409
12:00−6зюз58740 0.0 1021764
15:00−4зюз6107139 0.0 10201102
18:00−6з4878100 0.0 1019184
21:00−7з398398 0.0 1020229